Wetbulb
72.95 76.10 75.86 71.21 64.25 62.73 56.78 57.72 62.36 60.88 61.54 64.55 65.39 63.68 63.68 65.20 61.91 59.08 71.93 72.96 73.74 74.24 75.46 76.33 76.42 76.87 76.75 76.89 76.88 76.88 76.82 76.60 76.63 76.40 76.49 76.40 76.23 76.12 76.57 76.65 76.75 76.81 76.81 76.76 76.17 76.36 76.28 76.68 76.98
74.77 72.68 73.63 65.54 60.73 55.81 57.04 61.16 60.16 62.23 64.29 66.59 66.10 65.33 64.25 62.86 67.17 68.52 70.51 73.28 73.98 74.86 75.62 76.18 76.81 77.20 76.62 77.03 76.98 77.03 76.92 76.88 76.76 76.76 76.79 76.71 76.81 76.43 76.02 76.00 75.98 75.95 75.78 75.79 76.16 76.06 76.09 75.97 76.72
72.03 71.00 66.17 64.06 61.23 57.15 57.04 61.27 62.14 64.00 65.66 66.25 65.20 67.98 66.05 63.80 68.31 69.71 72.87 73.64 74.85 75.28 76.12 77.16 76.70 76.88 76.65 76.89 76.90 77.04 76.87 76.94 76.83 76.60 76.57 76.60 76.73 76.89 75.95 75.91 76.19 75.88 75.70 75.98 75.89 76.27 76.08 76.20 76.85
72.10 70.58 67.51 59.18 58.62 60.71 61.17 62.79 63.96 63.76 66.01 66.88 66.63 63.56 67.03 70.02 69.50 72.01 73.62 74.27 74.75 75.22 76.26 76.68 76.88 76.81 76.75 77.07 77.10 76.91 76.87 76.91 76.71 76.47 76.32 76.63 76.78 77.02 76.52 76.69 76.51 75.61 75.14 74.49 75.74 76.31 76.47 76.36 76.95
74.00 70.43 60.49 57.60 59.42 61.77 63.71 64.41 64.57 63.64 64.63 65.65 66.05 62.78 64.61 70.31 72.62 73.09 73.60 73.77 73.95 75.36 76.09 76.95 77.06 77.10 76.86 76.94 77.00 76.81 76.92 76.87 76.56 76.63 76.95 76.81 77.03 76.73 76.29 76.62 76.48 75.59 75.95 76.36 77.04 76.89 76.33 76.19 76.48
68.90 69.47 58.20 54.52 59.08 61.65 64.31 65.49 64.72 64.42 65.80 65.41 64.58 64.20 66.22 71.37 71.40 72.62 73.58 73.55 73.95 75.03 75.70 76.17 76.68 76.89 76.95 76.98 76.98 76.44 76.60 76.27 76.61 76.84 76.40 76.50 76.15 76.07 76.29 76.37 76.68 76.48 76.54 76.26 76.60 76.60 76.57 76.02 75.88
65.46 65.87 58.58 56.55 58.81 60.58 63.35 66.56 64.60 65.14 64.96 64.56 66.60 63.15 67.05 69.25 71.85 72.73 73.45 73.82 74.70 74.88 75.62 76.33 76.58 77.56 76.95 75.84 76.58 76.71 76.40 76.71 76.50 76.44 76.80 76.86 76.48 75.96 75.76 75.92 76.26 76.09 76.15 75.98 76.26 76.29 76.41 76.41 75.53
69.96 67.39 58.51 57.22 57.58 58.30 64.45 65.54 66.47 65.39 64.67 68.44 67.83 62.61 63.83 69.50 72.23 72.93 73.57 73.36 73.86 74.87 75.59 76.31 77.31 77.57 76.93 76.75 76.91 76.72 76.96 76.77 76.15 76.61 77.08 76.37 76.01 76.15 75.78 76.59 76.54 76.09 76.11 75.66 75.59 75.84 76.45 76.55 75.20
68.56 61.67 58.46 56.72 56.46 59.78 64.40 64.12 67.19 67.98 66.43 66.16 67.48 66.75 68.87 71.48 72.47 71.93 72.00 72.74 73.65 73.34 74.13 75.04 76.20 76.46 76.85 76.98 76.53 76.62 76.86 76.85 76.77 76.70 75.53 76.06 75.36 75.87 76.20 77.21 76.47 76.01 75.64 75.48 75.51 76.26 75.93 76.75 75.86
66.24 63.04 59.92 63.42 60.99 61.39 63.74 64.82 65.09 64.51 65.02 65.26 65.81 68.61 70.39 71.27 71.19 70.20 70.31 71.07 72.24 72.00 72.49 73.89 74.16 75.36 75.76 75.89 77.30 76.54 76.23 76.33 75.90 76.56 77.08 76.12 76.97 76.69 75.89 76.55 76.14 76.15 75.68 76.12 76.04 76.76 76.42 76.95 75.51
63.64 61.85 63.96 64.06 61.86 63.60 64.07 63.97 65.98 63.97 62.57 65.38 65.32 67.36 69.17 69.79 69.95 69.58 69.96 71.03 71.63 71.90 71.53 72.90 74.47 76.22 75.65 75.96 74.49 75.62 75.50 75.01 76.20 77.69 77.21 77.31 76.09 76.46 76.18 75.81 76.15 77.47 75.93 77.05 76.96 77.13 75.90 75.41 74.24
61.47 64.95 64.69 64.08 63.90 63.12 62.56 64.91 64.00 63.86 64.87 67.14 68.37 68.85 68.82 68.57 68.91 68.81 69.05 70.99 71.31 71.17 71.74 72.87 74.74 76.22 76.53 75.64 75.16 75.13 74.85 74.25 75.16 76.78 77.21 76.63 75.48 75.95 76.38 75.73 76.65 77.83 77.22 77.14 76.70 76.11 76.70 76.03 75.24
60.93 64.04 65.63 65.88 64.89 64.29 64.46 63.49 64.08 64.44 67.20 67.40 67.82 67.84 67.99 68.56 69.00 69.91 70.52 70.81 71.18 71.62 72.59 72.82 74.86 75.74 76.58 75.81 74.94 74.97 74.46 74.16 76.13 76.29 76.59 76.33 75.68 75.97 75.84 76.78 76.86 77.53 77.64 76.34 76.00 75.41 74.84 75.04 74.61
65.31 65.13 65.47 65.51 64.48 62.88 61.51 62.15 63.90 65.67 67.22 66.21 66.68 67.66 69.02 69.25 69.42 69.97 69.64 69.86 70.71 71.84 72.61 73.27 74.44 75.75 76.13 75.65 75.98 75.09 75.28 75.83 76.13 76.36 76.41 77.07 76.36 76.50 75.82 76.85 76.87 76.78 76.82 76.44 76.48 75.55 75.64 75.57 75.41
66.16 62.60 64.51 63.92 64.52 62.83 62.43 58.10 60.15 66.28 67.27 66.26 66.62 67.81 68.63 69.54 69.95 69.80 70.41 70.60 70.96 72.10 73.35 73.56 74.25 74.92 75.80 75.11 75.59 75.79 75.51 75.50 75.48 75.37 77.05 77.25 77.56 76.89 77.97 76.88 76.73 76.98 77.56 77.98 77.37 76.40 75.96 74.98 74.88
62.33 62.75 58.55 61.16 63.09 63.07 61.30 54.69 61.04 65.81 66.20 65.67 66.58 67.34 68.24 69.33 69.84 71.14 71.59 71.99 72.09 72.64 73.03 73.80 73.01 74.24 74.80 75.34 76.54 75.43 75.34 75.28 75.56 75.88 76.71 77.07 77.21 77.54 78.36 76.79 77.04 79.21 78.22 77.24 75.59 74.92 74.51 74.79 74.93
60.47 56.98 57.29 58.13 63.09 61.13 58.69 55.59 61.06 65.07 65.02 65.21 66.62 67.27 68.03 68.93 70.17 71.42 71.81 72.57 72.87 73.24 73.53 73.32 73.65 73.59 74.57 76.40 76.51 76.45 76.98 75.47 75.84 77.41 77.09 77.66 76.36 77.47 78.52 76.76 77.97 80.47 78.32 77.51 75.72 75.79 74.90 74.88 75.38
55.49 56.13 57.84 58.01 59.33 60.32 56.54 57.20 60.29 62.80 62.58 64.09 66.45 67.12 67.74 68.26 69.45 71.23 71.81 72.56 73.25 73.65 74.20 74.25 74.34 74.68 75.71 75.72 76.30 75.66 75.52 75.21 76.22 76.78 76.40 77.25 77.03 77.08 78.39 77.19 78.68 79.75 77.78 77.14 76.25 76.67 76.86 76.44 77.43
58.46 56.70 56.40 59.31 61.39 57.74 55.93 56.60 58.90 61.61 62.14 62.43 64.84 66.76 67.49 68.16 70.58 71.61 71.96 72.52 73.00 73.58 73.51 74.08 74.47 75.21 75.06 74.39 73.90 73.56 73.16 74.28 75.23 76.40 77.37 77.65 77.27 76.87 78.55 77.35 78.95 79.15 78.05 78.27 78.15 76.35 76.80 76.12 78.50
57.52 55.55 56.40 57.94 59.18 59.08 58.28 56.95 60.26 61.02 61.10 61.74 65.30 65.58 67.38 68.32 69.38 70.85 71.61 72.21 72.69 73.15 73.84 74.04 74.38 75.14 74.83 74.87 74.97 74.55 74.80 74.13 74.80 76.29 77.24 76.90 75.92 77.11 77.53 77.81 78.21 78.83 77.90 78.61 78.06 78.53 76.33 75.65 78.12
54.28 53.66 55.51 55.44 58.50 59.08 56.49 57.04 57.46 60.12 61.62 63.20 64.37 66.54 66.93 68.31 68.52 70.16 70.93 71.70 72.58 72.85 73.71 73.77 74.63 75.63 75.86 76.49 75.62 76.61 78.66 75.15 73.86 75.30 75.43 76.45 76.52 76.55 78.10 77.05 78.23 79.13 78.90 77.38 79.49 78.91 78.15 74.35 75.75
52.42 55.20 56.59 55.80 56.11 51.31 57.46 49.89 53.88 58.71 58.86 62.05 63.39 66.83 66.42 67.68 69.15 70.14 70.81 71.53 72.09 72.95 74.17 74.59 75.37 75.55 75.89 76.99 76.07 75.97 73.27 71.86 72.73 74.23 75.02 76.06 76.37 76.94 77.69 77.88 78.45 78.87 78.09 79.15 78.95 78.43 78.22 78.39 75.66
53.27 57.40 57.21 56.52 56.63 54.22 54.67 51.04 55.71 60.36 57.62 59.62 62.31 66.19 67.34 68.48 69.06 69.55 70.59 71.77 72.56 73.33 73.54 74.31 75.50 75.76 75.32 76.26 76.66 74.14 73.64 73.65 74.05 74.46 76.37 76.99 77.43 77.53 76.73 77.60 77.55 77.96 77.33 79.00 79.19 79.00 78.72 78.09 76.48
58.25 57.28 57.35 57.72 55.78 49.59 53.54 52.91 54.59 57.02 59.90 59.89 61.72 65.18 67.48 67.99 68.46 69.53 71.18 72.18 72.55 73.48 73.49 73.76 74.73 75.23 75.54 76.15 75.15 75.16 74.60 74.77 73.33 74.30 74.39 74.48 74.88 76.04 77.53 77.51 77.85 78.42 78.61 78.22 78.41 79.29 78.32 78.61 77.88
57.32 55.44 49.26 47.79 48.09 48.60 54.70 53.33 54.22 58.82 62.31 63.96 62.36 63.64 66.38 68.53 68.29 68.83 70.09 71.19 72.20 72.62 73.03 73.28 74.45 74.87 75.88 75.46 74.92 74.96 75.41 75.45 75.78 76.37 74.86 75.00 74.16 74.34 76.29 77.92 77.70 77.00 78.00 78.10 78.74 78.77 78.64 78.30 77.72
53.71 53.85 47.41 42.66 45.42 48.35 53.56 50.16 53.95 60.33 62.52 65.30 65.96 66.23 65.11 68.21 68.34 68.66 70.16 71.47 72.12 72.61 73.09 73.33 74.05 74.67 75.39 75.49 75.71 76.60 76.43 75.01 73.44 74.47 73.78 74.23 74.13 74.49 76.04 77.43 77.59 77.69 77.97 77.74 78.13 77.10 76.74 77.90 77.03
54.09 51.71 54.95 49.46 52.32 49.33 51.87 53.88 58.22 59.86 61.55 63.49 63.98 66.12 65.17 67.32 68.21 68.70 70.14 71.57 72.14 72.79 73.29 73.61 73.93 74.92 75.21 75.11 75.75 76.12 75.87 75.30 75.39 76.37 76.39 74.91 76.20 75.36 76.39 76.80 77.02 77.08 77.53 78.04 78.13 76.11 77.05 77.40 77.37
57.51 58.04 50.68 50.71 44.07 43.26 49.03 50.49 51.62 56.66 59.57 61.56 61.51 64.04 66.66 68.01 68.22 68.88 70.36 71.55 72.27 73.07 73.79 74.41 74.52 74.92 75.36 74.96 75.18 75.21 75.59 76.29 76.37 76.63 75.76 76.29 76.65 76.85 76.69 77.05 77.08 77.40 77.68 77.77 78.48 76.86 77.27 77.29 76.61
53.96 54.04 54.57 53.72 49.62 45.52 46.20 49.03 60.10 59.41 61.85 61.23 59.98 63.46 66.13 66.75 67.38 68.44 70.16 71.68 72.62 73.24 73.64 74.02 74.39 74.77 75.12 75.22 74.93 75.20 75.18 75.59 76.13 75.53 76.20 76.67 77.01 76.55 77.15 77.37 76.94 76.69 76.95 77.60 77.81 77.16 77.27 76.79 76.90
55.56 54.20 54.45 48.57 48.60 50.80 49.16 49.84 62.02 62.51 62.48 63.91 61.76 61.68 63.63 66.64 68.72 68.02 69.90 71.08 72.01 73.02 73.57 73.84 74.37 74.54 75.06 75.42 75.34 75.19 75.58 75.77 75.09 75.08 75.81 76.57 76.92 78.18 78.00 77.68 76.77 76.59 76.57 77.34 76.97 76.13 75.94 76.43 76.24
MSLP
1011.21 1010.48 1010.72 1010.41 1008.90 1006.42 1006.50 1006.79 1006.79 1007.26 1007.76 1008.29 1008.75 1008.54 1009.31 1010.39 1010.49 1011.89 1013.25 1013.88 1014.20 1014.60 1015.48 1016.03 1016.71 1016.71 1016.99 1017.15 1017.20 1017.35 1017.29 1017.35 1017.52 1017.62 1017.74 1017.80 1017.76 1017.82 1017.71 1017.77 1017.96 1017.91 1017.92 1018.19 1018.26 1018.24 1018.40 1018.39 1018.26
1010.07 1010.49 1010.31 1010.14 1008.51 1006.41 1006.74 1006.82 1006.73 1007.32 1007.99 1008.74 1009.23 1009.50 1009.66 1011.14 1011.98 1012.89 1013.59 1014.28 1014.25 1014.35 1014.89 1015.70 1016.90 1016.93 1017.12 1017.23 1017.34 1017.43 1017.53 1017.59 1017.80 1017.98 1018.02 1018.04 1017.96 1018.06 1018.06 1018.15 1018.23 1018.23 1018.31 1018.45 1018.64 1018.70 1018.64 1018.56 1018.51
1010.33 1010.68 1010.47 1009.37 1008.00 1007.00 1006.97 1006.88 1007.10 1007.89 1008.62 1008.97 1009.80 1010.04 1010.74 1011.96 1012.69 1012.98 1013.98 1014.50 1014.52 1014.78 1015.37 1016.72 1017.09 1017.23 1017.34 1017.44 1017.54 1017.65 1017.73 1017.91 1018.10 1018.26 1018.13 1018.18 1018.26 1018.22 1018.36 1018.48 1018.56 1018.60 1018.66 1018.76 1018.98 1019.00 1019.17 1018.95 1018.86
1009.87 1010.34 1010.70 1010.01 1008.23 1008.51 1007.46 1007.41 1007.69 1008.33 1009.00 1009.66 1010.09 1010.94 1012.32 1012.58 1013.03 1013.55 1014.37 1014.51 1014.89 1015.13 1015.51 1017.09 1017.24 1017.35 1017.51 1017.65 1017.80 1017.91 1018.07 1018.26 1018.40 1018.48 1018.50 1018.50 1018.52 1018.51 1018.67 1018.76 1018.75 1018.91 1019.09 1019.13 1019.20 1019.21 1019.39 1019.36 1019.26
1009.61 1009.39 1009.88 1010.15 1009.31 1008.85 1008.38 1008.14 1008.28 1008.79 1009.18 1009.88 1010.25 1011.19 1012.44 1013.39 1013.65 1014.18 1014.59 1014.62 1014.68 1014.92 1015.81 1016.82 1017.51 1017.63 1017.79 1017.95 1018.12 1018.27 1018.42 1018.60 1018.71 1018.76 1018.75 1018.82 1018.81 1018.88 1018.87 1018.93 1019.15 1019.25 1019.38 1019.25 1019.26 1019.43 1019.70 1019.77 1019.73
1008.90 1009.16 1009.64 1010.19 1009.87 1009.83 1009.10 1008.90 1008.87 1009.04 1009.76 1010.40 1010.75 1011.61 1012.92 1013.92 1014.04 1014.44 1014.67 1014.75 1014.77 1015.13 1015.62 1016.88 1017.71 1017.94 1018.07 1018.26 1018.45 1018.58 1018.75 1018.88 1019.06 1019.01 1019.11 1019.03 1019.13 1019.18 1019.23 1019.37 1019.50 1019.72 1019.86 1019.83 1019.90 1019.95 1019.99 1020.01 1019.95
1009.04 1009.09 1009.72 1010.64 1010.31 1010.53 1010.00 1009.51 1009.31 1009.36 1009.70 1010.08 1010.76 1011.37 1013.47 1013.85 1014.27 1014.68 1014.90 1015.13 1014.94 1015.41 1016.16 1016.71 1017.12 1018.07 1018.31 1018.64 1018.76 1018.85 1019.05 1019.15 1019.20 1019.28 1019.31 1019.33 1019.41 1019.47 1019.56 1019.67 1019.81 1020.07 1020.28 1020.17 1020.13 1020.14 1020.12 1020.17 1020.25
1008.94 1009.11 1010.11 1011.11 1010.90 1011.03 1010.77 1010.16 1010.08 1009.75 1010.27 1010.76 1010.87 1011.66 1012.88 1013.80 1014.55 1014.88 1015.18 1015.40 1015.58 1015.84 1016.37 1016.90 1017.30 1017.66 1017.72 1018.31 1018.97 1019.07 1019.16 1019.37 1019.40 1019.51 1019.57 1019.59 1019.68 1019.70 1019.74 1019.86 1020.13 1020.25 1020.22 1020.15 1020.25 1020.25 1020.27 1020.36 1020.53
1009.67 1009.62 1009.71 1010.91 1011.57 1011.45 1011.43 1010.46 1010.73 1010.79 1010.86 1010.92 1011.33 1011.42 1013.04 1014.22 1014.68 1014.85 1015.29 1015.57 1016.13 1016.20 1016.29 1016.32 1016.95 1017.45 1018.15 1017.95 1018.99 1019.24 1019.37 1019.49 1019.65 1019.78 1019.84 1019.43 1018.97 1019.15 1019.50 1020.10 1020.13 1020.13 1020.18 1020.23 1020.33 1020.40 1020.47 1020.41 1020.53
1008.11 1008.77 1009.35 1010.31 1011.70 1011.68 1011.45 1010.89 1010.96 1010.88 1010.96 1011.40 1011.50 1012.27 1013.69 1014.54 1014.63 1014.85 1015.21 1015.57 1016.12 1016.60 1016.78 1016.78 1016.69 1017.50 1017.89 1017.74 1018.75 1019.13 1019.05 1018.96 1019.37 1019.62 1019.59 1019.53 1019.81 1019.89 1019.80 1020.17 1020.33 1020.21 1020.25 1020.27 1020.32 1020.46 1020.19 1019.85 1019.01
1008.10 1008.65 1009.50 1010.57 1011.54 1011.91 1011.62 1011.25 1010.83 1010.66 1010.69 1011.10 1011.74 1012.65 1013.69 1014.31 1014.63 1014.87 1015.21 1015.71 1016.10 1016.94 1017.05 1017.23 1017.51 1017.83 1017.66 1018.33 1019.34 1019.02 1018.86 1019.25 1019.80 1020.07 1019.83 1019.99 1019.63 1019.70 1019.42 1019.50 1019.33 1019.31 1019.82 1018.97 1019.41 1019.42 1018.87 1019.20 1018.92
1007.68 1008.98 1009.49 1010.56 1011.43 1012.18 1012.23 1011.78 1011.12 1010.84 1010.85 1010.96 1011.73 1012.74 1013.46 1014.04 1014.34 1014.67 1015.06 1015.76 1016.50 1017.13 1017.28 1017.60 1017.97 1018.33 1018.65 1018.47 1018.44 1018.57 1018.92 1019.20 1019.17 1019.83 1020.04 1019.91 1019.41 1019.67 1019.67 1019.39 1019.48 1019.37 1019.32 1019.33 1019.10 1019.24 1019.36 1019.17 1019.12
1007.68 1009.04 1009.77 1011.04 1011.77 1012.81 1012.95 1012.85 1012.32 1011.42 1011.41 1011.61 1012.26 1013.03 1013.44 1013.88 1014.27 1014.62 1015.05 1015.84 1016.61 1017.13 1017.44 1017.98 1018.22 1018.65 1018.97 1018.80 1018.74 1018.78 1019.25 1019.02 1019.45 1019.63 1020.07 1019.89 1019.66 1019.95 1019.74 1020.00 1019.52 1019.51 1019.05 1019.02 1019.05 1019.19 1019.16 1019.15 1019.10
1008.30 1009.07 1009.80 1010.99 1012.15 1013.10 1013.55 1013.83 1013.04 1012.19 1011.85 1012.22 1012.74 1013.09 1013.45 1013.85 1014.31 1014.75 1015.17 1015.80 1016.54 1017.00 1017.41 1018.05 1018.30 1018.66 1018.86 1018.93 1019.35 1019.39 1019.28 1019.59 1019.38 1019.75 1020.19 1020.40 1019.88 1020.14 1019.81 1019.79 1019.44 1019.38 1019.28 1019.34 1019.30 1019.20 1019.15 1019.05 1019.22
1008.40 1008.99 1010.11 1011.20 1012.40 1013.40 1014.23 1014.57 1013.64 1012.66 1012.42 1012.57 1012.90 1013.17 1013.46 1013.88 1014.43 1014.86 1015.23 1015.85 1016.51 1016.96 1017.46 1017.97 1018.24 1018.68 1019.09 1019.41 1019.55 1019.22 1019.37 1019.30 1019.54 1019.83 1020.33 1020.38 1020.31 1020.51 1020.16 1019.89 1019.48 1019.57 1019.81 1019.84 1019.85 1019.60 1019.43 1019.12 1019.19
1007.74 1008.41 1009.73 1012.13 1012.81 1014.17 1014.44 1014.48 1014.38 1013.78 1013.07 1012.66 1012.84 1013.11 1013.56 1013.90 1014.31 1014.74 1015.27 1015.72 1016.39 1016.72 1017.60 1018.08 1018.04 1018.60 1019.10 1019.31 1019.45 1019.04 1019.10 1019.35 1019.62 1019.76 1019.88 1020.26 1020.54 1020.66 1020.21 1019.71 1019.79 1020.00 1019.62 1019.52 1019.47 1019.31 1019.28 1019.30 1019.32
1007.54 1007.32 1009.42 1012.05 1013.11 1014.26 1015.01 1014.97 1014.94 1014.70 1014.05 1012.77 1012.84 1012.94 1013.30 1013.66 1014.16 1014.59 1015.17 1015.62 1016.30 1016.85 1017.62 1018.01 1018.29 1018.59 1019.17 1019.55 1019.41 1019.27 1019.80 1019.57 1019.81 1019.85 1019.84 1020.43 1020.54 1020.64 1020.09 1019.91 1020.01 1019.97 1019.46 1019.50 1019.42 1019.65 1019.43 1019.80 1019.47
1005.77 1007.24 1009.20 1011.11 1013.38 1013.81 1015.16 1015.14 1015.16 1015.21 1014.92 1013.09 1012.71 1012.65 1012.79 1013.04 1013.55 1014.29 1014.86 1015.41 1016.06 1016.88 1017.57 1018.05 1018.35 1018.78 1019.19 1019.34 1019.49 1019.30 1019.59 1019.58 1019.75 1019.82 1019.86 1020.33 1020.41 1020.57 1020.25 1020.12 1020.19 1019.64 1019.18 1019.52 1019.61 1019.97 1019.96 1019.81 1019.82
1006.68 1007.46 1009.06 1010.94 1012.66 1013.51 1014.29 1014.96 1015.01 1015.11 1015.38 1014.37 1012.55 1012.26 1012.20 1012.40 1012.92 1013.71 1014.62 1015.24 1015.83 1016.57 1017.47 1018.22 1018.69 1019.13 1019.34 1019.25 1019.16 1019.24 1019.24 1019.62 1019.73 1019.83 1020.37 1020.54 1020.63 1020.73 1020.67 1020.17 1020.05 1019.78 1019.71 1020.10 1020.15 1020.12 1020.09 1019.79 1019.99
1006.84 1007.46 1008.92 1010.54 1011.60 1011.86 1013.14 1014.16 1014.39 1015.15 1015.40 1015.06 1012.70 1012.09 1011.68 1011.72 1012.29 1013.31 1014.26 1014.89 1015.60 1016.33 1017.01 1017.94 1018.62 1019.11 1019.40 1019.16 1019.09 1018.98 1019.00 1019.40 1019.49 1019.77 1020.26 1020.45 1020.64 1020.77 1020.64 1020.74 1020.22 1020.43 1019.86 1020.29 1020.27 1020.09 1019.56 1019.83 1020.06
1006.77 1007.09 1008.23 1008.90 1010.50 1010.77 1011.60 1012.37 1013.89 1014.75 1014.85 1014.98 1013.86 1011.88 1011.42 1011.29 1011.72 1012.70 1013.78 1014.41 1015.17 1015.99 1016.71 1017.54 1018.25 1018.93 1019.29 1019.02 1019.18 1019.56 1019.66 1019.65 1019.80 1019.97 1020.11 1020.24 1020.60 1020.56 1020.60 1020.73 1020.52 1020.42 1019.77 1019.86 1020.14 1020.15 1020.16 1019.56 1020.10
1006.14 1007.15 1007.99 1008.70 1008.77 1008.84 1010.38 1010.76 1011.78 1013.01 1013.83 1013.91 1013.29 1011.93 1011.00 1010.95 1011.38 1011.86 1012.98 1013.83 1014.52 1015.43 1016.32 1017.13 1017.95 1018.67 1019.10 1019.19 1018.98 1019.15 1019.20 1019.03 1019.16 1019.54 1019.69 1019.96 1020.56 1020.58 1020.53 1020.64 1020.63 1020.63 1020.04 1020.43 1020.25 1020.13 1020.26 1020.15 1019.74
1006.56 1007.43 1007.81 1008.22 1008.17 1008.79 1009.04 1009.35 1009.98 1011.09 1012.45 1012.66 1012.54 1011.62 1010.66 1010.43 1010.37 1011.00 1011.88 1012.91 1013.81 1014.87 1015.68 1016.58 1017.60 1018.39 1018.73 1019.22 1018.88 1019.08 1019.02 1018.86 1019.36 1019.36 1019.98 1019.96 1020.48 1020.53 1020.47 1020.69 1020.77 1020.73 1020.03 1020.52 1020.59 1020.58 1020.68 1020.29 1020.04
1007.49 1007.64 1007.98 1008.16 1007.95 1007.37 1008.14 1008.30 1007.53 1009.06 1009.42 1011.05 1011.57 1011.43 1010.72 1009.88 1009.80 1010.46 1011.16 1012.12 1013.23 1014.26 1015.21 1015.99 1017.13 1017.95 1018.49 1019.07 1019.19 1019.14 1018.87 1018.85 1018.98 1019.42 1019.77 1019.75 1019.90 1020.09 1020.51 1020.54 1020.75 1020.81 1020.62 1020.55 1020.41 1020.66 1020.84 1020.90 1020.81
1007.19 1006.91 1006.53 1006.45 1006.47 1006.16 1007.49 1007.60 1006.45 1006.88 1007.45 1007.97 1009.60 1010.21 1010.25 1010.41 1009.47 1010.03 1010.61 1011.69 1012.70 1013.59 1014.75 1015.50 1016.57 1017.45 1018.03 1018.64 1018.94 1019.13 1019.25 1019.35 1019.61 1019.78 1019.70 1019.34 1019.45 1019.63 1020.10 1020.57 1020.69 1020.49 1020.82 1020.76 1020.68 1020.85 1020.82 1020.78 1020.68
1006.56 1005.88 1005.35 1005.24 1005.08 1006.04 1007.51 1006.30 1005.64 1005.98 1006.30 1006.91 1007.50 1008.37 1009.41 1009.60 1009.47 1009.59 1010.60 1011.50 1012.33 1013.22 1014.22 1015.09 1016.00 1016.89 1017.54 1018.04 1018.58 1019.02 1019.16 1019.36 1019.41 1019.48 1019.22 1019.30 1019.13 1019.37 1019.70 1020.36 1020.50 1020.65 1020.68 1020.71 1020.79 1020.50 1020.54 1020.62 1020.75
1005.95 1006.35 1005.36 1005.88 1005.52 1005.91 1005.74 1006.08 1005.75 1005.56 1005.93 1006.52 1006.98 1007.65 1008.54 1008.77 1008.92 1009.38 1010.18 1011.05 1011.85 1012.80 1013.71 1014.59 1015.56 1016.44 1017.03 1017.53 1018.14 1018.63 1019.08 1019.37 1018.76 1018.94 1019.45 1019.36 1019.36 1019.15 1019.75 1020.20 1020.41 1020.57 1020.63 1020.66 1020.66 1020.66 1020.68 1020.82 1020.96
1006.13 1005.52 1005.66 1005.29 1005.57 1005.10 1005.52 1005.75 1005.01 1005.43 1005.84 1006.38 1007.42 1007.20 1007.64 1008.25 1008.65 1009.05 1009.88 1010.72 1011.30 1012.23 1013.29 1014.27 1015.13 1015.96 1016.55 1017.00 1017.58 1018.02 1018.43 1018.99 1019.05 1019.48 1019.57 1019.26 1019.27 1019.57 1019.46 1020.00 1020.15 1020.31 1020.44 1020.56 1020.67 1020.52 1020.51 1020.84 1020.79
1006.03 1005.58 1005.26 1005.07 1006.73 1005.25 1004.57 1005.29 1005.57 1006.37 1007.10 1007.31 1008.20 1007.90 1007.50 1008.52 1008.76 1009.07 1009.57 1010.38 1011.13 1011.75 1012.71 1013.72 1014.58 1015.31 1015.95 1016.56 1016.99 1017.47 1017.86 1018.30 1018.72 1018.90 1019.18 1019.33 1019.40 1019.61 1019.89 1019.88 1020.17 1020.30 1020.56 1020.34 1020.58 1020.71 1020.53 1020.64 1020.71
1005.56 1004.57 1004.54 1004.22 1004.57 1004.49 1005.14 1005.42 1006.55 1007.38 1007.84 1007.57 1008.31 1008.92 1009.22 1008.94 1008.42 1009.16 1009.32 1009.94 1010.69 1011.53 1012.33 1013.14 1013.96 1014.60 1015.15 1015.76 1016.48 1017.03 1017.50 1017.84 1018.10 1018.46 1018.72 1019.01 1019.22 1019.39 1019.52 1019.75 1019.91 1019.96 1020.05 1020.24 1020.54 1020.49 1020.26 1020.35 1020.44
Wind_Speed
10 9 1 5 5 4 9 6 12 13 11 7 7 4 14 13 11 10 12 11 12 12 12 13 10 12 12 12 14 15 15 15 15 15 14 14 14 14 14 13 14 14 13 13 12 12 12 12 13
4 1 3 3 2 8 7 8 12 10 12 13 9 8 8 12 10 15 12 12 11 11 12 14 8 12 11 13 13 13 14 15 14 14 14 14 14 15 15 15 15 16 15 14 13 13 14 14 15
3 2 1 3 2 3 7 7 14 13 14 7 5 9 6 7 14 6 16 13 12 10 12 12 11 11 11 13 13 13 14 14 13 14 13 13 14 16 15 15 16 17 16 16 15 15 15 11 14
4 4 2 3 11 6 7 9 14 16 11 4 10 10 9 13 7 11 15 12 12 12 14 12 10 11 11 12 13 12 13 13 14 13 14 14 14 15 14 14 16 17 15 13 11 14 14 13 15
3 2 2 3 11 11 10 10 14 12 6 8 1 9 13 9 14 16 14 11 11 12 13 14 11 12 11 12 12 12 13 12 12 12 13 14 13 14 15 14 15 17 12 11 13 13 14 13 13
3 1 6 4 11 11 8 9 9 5 9 9 13 19 11 12 15 14 13 12 10 12 12 13 11 11 11 12 12 11 12 12 12 13 13 14 13 12 12 12 13 14 14 12 12 11 11 12 12
0 1 4 7 11 8 6 2 7 8 8 9 16 13 10 15 14 14 12 11 11 10 11 8 12 11 13 12 11 11 12 12 13 13 12 14 12 12 11 11 11 12 12 11 10 9 8 10 10
3 1 7 2 7 5 3 6 6 5 8 10 6 8 16 18 14 13 12 11 10 10 9 8 8 10 13 12 12 12 12 12 12 13 13 13 12 10 9 11 9 10 9 9 8 8 8 9 10
3 1 7 7 3 5 1 8 6 2 11 6 5 8 20 19 16 15 12 11 9 7 8 9 11 9 7 10 11 12 13 13 12 12 6 7 8 9 11 11 8 8 8 7 7 8 7 12 10
4 3 4 9 7 4 4 6 7 6 10 8 12 18 21 19 16 15 14 12 11 9 8 7 7 10 9 8 9 7 7 8 8 8 6 9 8 8 8 7 6 5 4 5 5 5 7 13 8
3 4 6 10 10 6 5 5 1 8 8 12 15 22 21 17 16 14 13 10 9 8 7 9 7 7 8 8 8 4 5 6 7 7 5 6 5 4 4 5 4 4 5 3 6 8 3 6 6
4 5 4 9 7 6 4 2 2 4 5 5 19 22 21 18 15 14 13 11 10 8 8 7 8 6 6 7 7 6 6 6 6 7 5 4 4 4 3 4 4 2 4 4 4 6 5 8 7
3 5 8 10 11 10 8 9 5 5 7 16 19 18 17 15 13 11 11 11 10 10 9 8 8 7 8 5 5 5 6 6 8 5 5 4 4 4 4 4 4 3 3 6 6 7 7 8 9
8 5 8 11 12 6 7 4 4 7 13 16 17 16 15 13 12 10 9 10 10 9 10 10 9 8 7 6 6 6 5 7 5 5 6 5 4 4 4 3 4 4 4 6 6 5 6 7 8
10 10 9 6 10 5 10 2 4 6 12 16 16 14 13 11 11 10 10 10 10 9 10 11 9 9 7 8 8 6 6 6 6 6 5 5 3 5 1 4 3 4 5 5 5 5 5 6 6
6 5 6 1 6 7 6 12 5 3 9 16 16 13 12 12 12 10 10 10 10 10 10 10 9 10 9 8 5 5 5 6 5 4 4 4 5 4 2 3 4 4 3 3 5 4 4 5 4
6 1 5 6 4 8 2 3 12 7 7 16 15 15 13 13 11 11 11 11 11 10 11 11 10 11 10 8 6 5 6 5 4 3 3 5 5 4 2 3 4 1 4 4 5 4 4 4 3
10 6 9 8 4 14 5 6 3 12 6 15 16 15 14 14 14 12 12 11 12 11 11 11 10 11 9 7 5 5 5 4 4 3 5 5 4 4 2 4 3 2 3 5 5 4 3 3 2
2 8 10 10 9 6 6 8 5 7 9 14 14 17 16 15 14 15 12 13 12 13 13 11 10 10 8 8 7 6 7 5 4 4 5 5 3 4 2 2 1 1 5 5 5 5 3 4 2
4 3 10 9 4 3 8 7 9 12 8 12 17 15 15 16 15 14 14 13 14 13 13 12 11 11 10 8 6 5 5 6 5 5 4 4 4 3 3 1 2 4 5 5 4 1 2 3 2
7 4 6 4 7 4 3 8 8 5 9 14 16 17 16 16 15 15 15 14 14 14 14 13 13 11 10 8 7 5 4 4 6 6 6 6 5 4 2 3 3 1 4 6 2 3 3 4 3
12 6 4 7 10 6 3 1 1 12 15 18 19 16 16 17 17 17 17 16 15 14 14 14 13 12 10 10 9 10 8 7 6 6 5 5 5 4 3 3 2 1 3 3 2 5 4 5 2
5 4 6 5 3 6 2 6 9 7 10 17 19 19 17 19 18 17 17 17 16 14 14 14 13 12 11 10 8 9 9 6 6 5 7 5 5 5 5 4 4 1 3 3 2 3 5 3 4
4 6 5 6 6 9 1 8 3 8 14 18 16 23 19 17 18 17 17 16 15 15 14 14 15 14 13 10 11 11 10 7 7 7 7 7 6 7 6 6 4 3 1 3 2 2 2 5 4
14 13 8 9 8 4 3 7 6 1 8 17 23 23 24 19 18 17 15 14 16 16 15 14 15 15 14 13 11 12 10 10 7 7 7 6 6 6 8 6 6 5 4 4 3 3 2 1 2
14 15 8 7 4 3 4 4 5 4 6 14 11 21 18 23 20 17 17 17 17 16 16 15 15 15 15 13 12 9 9 7 9 11 8 8 6 5 5 7 6 5 5 5 4 6 6 3 4
11 9 11 9 6 6 4 6 9 2 8 8 9 17 20 23 21 19 18 17 17 17 17 17 16 15 14 15 12 11 10 11 8 7 9 8 6 4 6 8 8 7 7 6 5 7 5 4 5
12 6 10 9 6 6 6 4 6 7 4 8 8 12 21 25 21 19 17 16 16 17 16 15 16 15 15 14 13 11 11 11 9 7 9 8 5 8 5 8 9 9 8 8 8 7 7 6 6
9 11 12 7 10 1 4 4 7 1 3 3 6 9 11 20 17 16 17 16 16 16 16 16 15 15 15 15 14 13 12 11 10 10 10 10 9 10 10 10 9 9 9 10 9 9 8 6 7
13 12 15 9 10 5 6 0 5 4 1 7 10 5 2 12 18 14 17 17 16 16 15 16 15 15 15 14 14 14 12 11 12 11 11 10 10 9 10 9 10 10 10 9 11 11 10 9 9
Wind_Direction
204 201 106 267 236 225 121 108 105 126 131 113 105 78 77 28 6 78 115 118 122 115 122 112 107 106 102 99 99 97 93 93 88 87 89 89 91 90 89 82 81 83 82 83 83 77 88 109 116
163 179 205 272 260 149 109 127 136 133 112 114 98 113 62 71 81 111 118 123 125 120 116 107 107 105 105 103 97 98 94 87 86 89 90 88 87 90 89 87 86 79 74 77 73 84 81 87 100
217 56 285 310 216 63 113 136 128 113 130 112 97 50 41 86 120 84 114 128 118 98 94 104 109 106 107 107 100 95 95 91 88 85 90 87 84 86 92 90 87 82 76 79 82 77 76 94 97
178 191 193 3 103 81 108 131 133 134 120 66 112 84 84 102 102 117 129 124 119 133 104 116 113 111 106 99 99 94 95 88 88 82 83 89 88 87 93 87 85 83 74 79 89 95 84 83 85
233 188 86 65 89 99 94 112 128 134 126 121 73 110 108 94 118 124 128 131 129 110 120 121 123 112 108 104 98 96 93 91 88 92 81 86 85 92 92 92 92 96 95 71 83 82 85 85 86
208 301 159 118 120 92 95 130 148 141 124 116 116 124 88 122 134 132 135 126 121 110 116 126 121 118 117 107 102 100 96 88 87 88 92 92 88 90 94 99 98 99 98 86 84 97 87 85 87
334 113 75 121 132 119 74 102 182 149 147 119 132 126 120 145 132 135 132 127 123 117 97 123 128 131 113 115 111 102 97 94 93 92 97 94 90 90 93 93 96 95 101 95 90 88 84 96 94
272 227 130 72 168 112 50 97 93 159 88 113 159 152 153 141 143 138 136 135 122 124 123 116 128 122 141 131 116 102 93 94 96 86 87 97 97 101 106 126 99 102 99 94 101 91 79 117 103
130 225 169 148 170 129 51 124 87 102 143 150 109 151 142 138 154 147 141 136 132 140 129 129 121 101 102 121 110 106 103 95 116 110 99 178 88 102 105 70 104 102 104 105 111 107 100 128 119
257 25 118 145 134 185 143 112 116 144 136 130 124 111 139 155 160 154 157 150 158 143 144 110 132 126 141 103 99 114 117 86 87 83 92 83 77 57 79 95 107 112 141 149 139 135 183 214 141
60 40 113 136 137 188 113 126 136 162 161 160 156 145 152 161 162 166 158 155 149 157 153 147 114 143 135 118 111 167 128 127 113 103 86 63 97 86 102 132 139 142 194 140 171 174 115 69 94
126 61 115 146 151 142 108 342 72 161 29 148 151 151 154 167 169 169 163 159 147 163 150 145 146 133 148 133 164 134 119 128 131 87 117 123 120 99 74 76 111 104 67 81 79 84 88 110 109
147 117 123 147 163 128 132 48 330 109 127 132 143 151 158 171 169 171 164 154 157 172 151 161 149 155 141 172 130 121 130 147 118 135 83 73 81 87 97 76 67 56 93 99 89 92 106 110 108
104 109 111 148 141 116 121 16 300 97 143 145 156 161 164 168 170 162 169 162 167 168 158 154 169 154 150 135 148 139 149 127 142 117 89 88 56 36 93 96 78 84 70 64 81 87 110 99 108
138 125 104 143 156 149 122 290 208 131 165 158 169 173 168 170 166 169 170 165 170 179 156 156 165 160 163 144 161 160 153 155 147 116 119 82 26 84 32 78 61 63 92 128 124 132 137 118 109
199 178 218 60 171 131 167 207 226 204 184 172 174 174 176 175 172 168 165 159 158 170 162 164 169 159 165 151 161 160 157 151 136 140 138 104 95 68 109 71 55 44 95 104 121 120 120 101 98
194 191 121 115 43 133 160 169 225 213 245 190 183 178 181 180 182 171 167 166 157 160 165 171 169 167 164 154 167 172 124 171 145 150 130 105 118 96 43 64 75 41 83 88 138 118 128 118 99
128 141 85 124 83 98 195 229 232 225 276 219 191 185 187 189 182 175 176 172 166 162 166 176 173 156 171 160 172 158 147 157 156 144 108 137 106 86 5 86 51 303 84 114 103 122 78 71 49
75 84 88 101 147 116 162 184 223 196 190 259 213 193 191 196 174 173 184 176 174 176 171 178 173 167 176 181 183 168 169 155 153 152 134 133 93 93 39 63 111 347 56 49 142 159 147 112 120
174 134 98 105 144 216 173 153 185 189 204 232 235 198 207 192 184 179 185 180 184 186 183 181 180 176 191 200 201 192 169 169 155 149 152 132 134 138 162 339 53 357 98 82 125 240 142 109 76
212 254 155 76 161 151 159 161 168 202 189 225 247 234 204 201 188 182 187 187 189 185 189 184 186 187 191 207 192 188 153 159 183 162 174 164 165 174 166 151 22 27 296 88 48 56 355 111 80
249 173 182 155 238 28 321 291 239 173 200 213 215 226 222 213 200 186 187 193 192 186 188 185 187 187 194 193 184 189 199 187 187 187 178 164 178 173 171 158 155 339 19 53 66 64 7 304 86
306 160 207 224 268 257 137 256 126 163 200 210 220 226 233 210 206 201 190 190 194 183 186 185 188 187 192 195 202 186 214 179 182 182 149 210 161 200 195 186 179 205 240 115 49 36 22 66 4
141 167 171 230 271 241 125 289 171 170 204 192 221 223 231 235 206 207 198 186 192 182 187 187 185 192 201 197 205 219 196 198 184 185 176 181 184 184 200 194 199 183 220 218 231 353 73 27 21
199 187 193 219 202 303 119 263 45 353 189 187 190 214 225 219 225 199 203 191 189 186 187 190 185 195 202 202 208 211 219 214 208 186 213 192 198 202 173 209 208 199 204 223 265 236 285 270 343
214 229 263 247 229 222 137 242 80 263 266 185 215 202 205 220 224 199 200 195 192 191 189 191 186 193 199 211 210 216 212 217 211 203 228 216 217 204 189 204 223 225 226 226 228 233 247 189 247
166 233 267 280 168 279 126 238 243 202 179 178 209 183 206 210 210 202 199 200 193 192 192 192 189 197 198 200 205 205 205 229 229 220 211 219 229 227 209 218 217 230 238 243 238 250 244 257 245
266 276 211 230 222 226 101 285 291 191 96 150 203 249 195 201 210 200 199 199 197 193 190 194 191 194 199 203 200 209 215 213 226 215 225 243 243 242 251 218 226 226 229 239 237 248 225 248 261
181 230 247 123 313 121 214 80 21 42 15 169 210 243 194 202 201 212 200 201 205 196 189 193 195 194 199 203 202 210 209 214 219 221 222 226 223 234 231 236 236 241 243 235 227 252 280 247 256
288 282 222 236 232 229 329 149 83 59 63 200 169 136 262 244 198 197 205 205 195 203 191 193 194 198 200 199 202 204 209 213 210 217 224 226 234 230 235 228 233 233 233 235 233 235 254 234 256